Regional Weather Roundup
Issued by NWS

Home | Current Version | Previous Version | Text Only | Print | Product List | Glossary On
Versions: 1 2 3 4 5 6 7 8 9 10 11 12 13 14 15 16 17 18 19 20 21 22 23 24 25 26 27 28 29 30 31 32 33 34 35 36 37 38 39 40 41 42 43 44 45 46 47 48 49 50
667
ASCA44 KEWX 110611
RWRMX

LATIN AMERICA AND CARIBBEAN REGIONAL WEATHER ROUNDUP
NATIONAL WEATHER SERVICE AUSTIN/SAN ANTONIO TX
1200 AM CST SUN DEC 11 2016

NOTE: "FAIR" INDICATED FEW OR NO CLOUDS BELOW 12,000 FEET WITH NO
SIGNIFICANT WEATHER AND/OR OBSTRUCTIONS TO VISIBILITY.

BAJA CALIFORNIA

CITY           SKY/WX    TMP DP  RH WIND       PRES   REMARKS
LA PAZ         CLEAR     57  50  77 S5        30.06R
MEXICALI       MOCLDY    59  37  44 E3        30.02R
S.J. DEL CABO  CLEAR     63  57  82 SW7       30.04R
TIJUANA        CLOUDY    59  52  77 CALM      30.17S

NORTHWESTERN MEXICO

CITY           SKY/WX    TMP DP  RH WIND       PRES   REMARKS
HERMOSILLO     CLEAR     63  46  55 CALM      30.05S

NORTHEASTERN MEXICO

CITY           SKY/WX    TMP DP  RH WIND       PRES   REMARKS
MONCLOVA         N/A    N/A N/A N/A MISG        N/A
MONTERREY      DRZL/FOG  50  48  93 CALM      30.16F VSB 1/2
REYNOSA          N/A    N/A N/A N/A MISG        N/A
SALTILLO       CLEAR     57  50  77 S9        30.24F
CD. VICTORIA     N/A    N/A N/A N/A MISG        N/A

WESTERN MEXICO

CITY           SKY/WX    TMP DP  RH WIND       PRES   REMARKS
AGUASCALIENTES CLEAR     54  45  71 N9        30.37R
COLIMA         PTCLDY    73  66  78 CALM      30.08
DEL BAJIO      MOCLDY    59  48  67 NE8       30.40R
GUADALAJARA    PTCLDY    54  48  82 CALM      30.27S
MAZATLAN       CLEAR     61  55  82 N3        29.97S
P. VALLARTA    CLEAR     70  70 100 NE3       29.97S
URUAPAN          N/A    N/A N/A N/A MISG        N/A
ZACATECAS      CLEAR     48  39  71 CALM      30.38S

CENTRAL MEXICO

CITY           SKY/WX    TMP DP  RH WIND       PRES   REMARKS
CUERNAVACA       N/A    N/A N/A N/A MISG        N/A
MEXICO CITY    PTCLDY    55  45  67 NW8       30.43F
MORELIA        CLEAR     52  45  76 CALM      30.34R
POZA RICA        N/A    N/A N/A N/A MISG        N/A
QUERETARO      PTCLDY    50  50 100 E9        30.44S WCI  46
S. LUIS POTOSI PTCLDY    54  46  76 SE5       30.40S
TOLUCA         PTCLDY    46  43  87 CALM      30.49S

SOUTHERN MEXICO

CITY           SKY/WX    TMP DP  RH WIND       PRES   REMARKS
ACAPULCO       CLEAR     79  75  89 NE5       29.95S
B. DE HUATULCO MOCLDY    75  57  53 CALM      30.01S
P. ESCONDIDO     N/A    N/A N/A N/A MISG        N/A
VERACRUZ         N/A    N/A N/A N/A MISG        N/A

YUCATAN PENINSULA

CITY           SKY/WX    TMP DP  RH WIND       PRES   REMARKS
CAMPECHE         N/A    N/A N/A N/A MISG        N/A
CANCUN         LGT RAIN  73  72  94 E5        30.09F
CHETUMAL         N/A    N/A N/A N/A MISG        N/A
CD. DEL CARMEN   N/A    N/A N/A N/A MISG        N/A
COZUMEL        PTCLDY    75  72  88 E5        30.07F
MERIDA         MOCLDY    73  70  88 NE7       30.11F
MINATITLAN       N/A    N/A N/A N/A MISG        N/A
TAPACHULA      PTCLDY    75  73  94 CALM      29.91F

CENTRAL AMERICA

CITY           SKY/WX    TMP DP  RH WIND       PRES   REMARKS
MANAGUA        PTCLDY    75  70  83 SE7       29.86F

CARIBBEAN

CITY           SKY/WX    TMP DP  RH WIND       PRES   REMARKS
CURACAO        PTCLDY    82  75  78 E18       29.92F
NASSAU         LGT RAIN  72  68  88 E14       30.19S
SAN JUAN       PTCLDY    77  73  88 SE7       30.05F
SANTO DOMINGO  PTCLDY    75  72  88 CALM      30.03S
ST. CROIX      LGT RAIN  77  73  88 NE12      30.04
ST. THOMAS     CLEAR     79  73  83 E12       30.04

$$





USA.gov is the U.S. government's official web portal to all federal, state and local government web resources and services.